User: anonymous   Login
Location: Boiro
(42.6475°N, 8.8834°W)
Time: 21:42:22
(UTC+01:00)
Language:

Gurwin Techsat 1B - Orbit

View from above orbital plane
View from above orbital plane
View from above satellite
View from above satellite

Ground track
Ground track

The orbit data is extracted from the following two-line orbital elements,

1 25397U 98043D   22021.47939723  .00000020  00000-0  28202-4 0  9991
2 25397  98.8000 331.7147 0001748 135.0577 225.0743 14.23728778222511
Epoch (UTC): 21 January 2022 11:30:19
Eccentricity: 0.0001748
inclination: 98.8000°
perigee height: 811 km
apogee height: 814 km
right ascension of ascending node: 331.7147°
argument of perigee: 135.0577°
revolutions per day: 14.23728778
mean anomaly at epoch: 225.0743°
orbit number at epoch: 22251

The dashed part of the orbit path shows where the satellite is in the earth's shadow,  

DLR